Time,TemperatureF,DewpointF,PressureIn,WindDirection,WindDirectionDegrees,WindSpeedMPH,WindSpeedGustMPH,Humidity,HourlyPrecipIn,Conditions,Clouds,dailyrainin,SoftwareType,DateUTC
2013-02-09 00:02:00,24.0,23.0,29.37,NW,322,3.0,-999.0,95,-99.99,,,-99.99,,2013-02-09 05:02:00,
2013-02-09 00:12:00,24.0,23.0,29.37,NW,322,3.0,-999.0,95,-99.99,,,-99.99,,2013-02-09 05:12:00,
2013-02-09 00:22:00,24.0,23.0,29.37,NNW,336,4.0,-999.0,95,-99.99,,,-99.99,,2013-02-09 05:22:00,
2013-02-09 00:32:00,24.0,23.0,29.37,NNW,336,4.0,-999.0,95,-99.99,,,-99.99,,2013-02-09 05:32:00,
2013-02-09 00:42:00,24.0,23.0,29.37,NNW,336,4.0,-999.0,95,-99.99,,,-99.99,,2013-02-09 05:42:00,
2013-02-09 00:52:00,23.0,22.0,29.37,WNW,300,5.0,-999.0,94,-99.99,,,-99.99,,2013-02-09 05:52:00,
2013-02-09 01:02:00,23.0,22.0,29.38,NNW,331,4.0,-999.0,95,-99.99,,,-99.99,,2013-02-09 06:02:00,
2013-02-09 01:11:00,23.0,22.0,29.38,NNW,331,4.0,-999.0,95,-99.99,,,-99.99,,2013-02-09 06:11:00,
2013-02-09 01:21:00,23.0,22.0,29.38,West,271,6.0,-999.0,94,-99.99,,,-99.99,,2013-02-09 06:21:00,
2013-02-09 01:32:00,22.0,21.0,29.39,SE,130,5.0,-999.0,94,-99.99,,,-99.99,,2013-02-09 06:32:00,
2013-02-09 01:42:00,22.0,21.0,29.39,SE,130,5.0,-999.0,94,-99.99,,,-99.99,,2013-02-09 06:42:00,
2013-02-09 01:52:00,22.0,21.0,29.40,NNW,348,5.0,-999.0,94,-99.99,,,-99.99,,2013-02-09 06:52:00,
2013-02-09 02:01:00,22.0,21.0,29.41,NNW,340,5.0,-999.0,94,-99.99,,,-99.99,,2013-02-09 07:01:00,
2013-02-09 02:11:00,22.0,21.0,29.41,NNW,340,5.0,-999.0,94,-99.99,,,-99.99,,2013-02-09 07:11:00,
2013-02-09 02:21:00,22.0,21.0,29.41,NNW,340,5.0,-999.0,94,-99.99,,,-99.99,,2013-02-09 07:21:00,
2013-02-09 02:31:00,22.0,21.0,29.41,NW,325,4.0,-999.0,94,-99.99,,,-99.99,,2013-02-09 07:31:00,
2013-02-09 02:42:00,22.0,21.0,29.41,NW,325,4.0,-999.0,94,-99.99,,,-99.99,,2013-02-09 07:42:00,
2013-02-09 02:51:00,22.0,21.0,29.41,NW,322,3.0,-999.0,94,-99.99,,,-99.99,,2013-02-09 07:51:00,
2013-02-09 03:01:00,22.0,21.0,29.41,NW,322,3.0,-999.0,94,-99.99,,,-99.99,,2013-02-09 08:01:00,
2013-02-09 03:11:00,22.0,21.0,29.41,NW,322,3.0,-999.0,94,-99.99,,,-99.99,,2013-02-09 08:11:00,
2013-02-09 03:21:00,22.0,21.0,29.41,WNW,286,3.0,-999.0,95,-99.99,,,-99.99,,2013-02-09 08:21:00,
2013-02-09 03:32:00,23.0,22.0,29.40,NNW,345,3.0,-999.0,95,-99.99,,,-99.99,,2013-02-09 08:32:00,
2013-02-09 03:42:00,23.0,22.0,29.40,NNW,345,3.0,-999.0,95,-99.99,,,-99.99,,2013-02-09 08:42:00,
2013-02-09 03:52:00,23.0,22.0,29.41,NW,324,3.0,-999.0,95,-99.99,,,-99.99,,2013-02-09 08:52:00,
2013-02-09 04:03:00,23.0,22.0,29.41,NNW,339,4.0,-999.0,95,-99.99,,,-99.99,,2013-02-09 09:03:00,
2013-02-09 04:11:00,23.0,22.0,29.41,NNW,339,4.0,-999.0,95,-99.99,,,-99.99,,2013-02-09 09:11:00,
2013-02-09 04:22:00,23.0,22.0,29.42,NW,311,6.0,-999.0,95,-99.99,,,-99.99,,2013-02-09 09:22:00,
2013-02-09 04:32:00,23.0,22.0,29.42,NNW,339,4.0,-999.0,95,-99.99,,,-99.99,,2013-02-09 09:32:00,
2013-02-09 04:42:00,23.0,22.0,29.42,NNW,339,4.0,-999.0,95,-99.99,,,-99.99,,2013-02-09 09:42:00,
2013-02-09 04:52:00,23.0,22.0,29.42,NW,315,5.0,-999.0,95,-99.99,,,-99.99,,2013-02-09 09:52:00,
2013-02-09 05:01:00,23.0,22.0,29.42,NNW,335,5.0,-999.0,94,-99.99,,,-99.99,,2013-02-09 10:01:00,
2013-02-09 05:11:00,23.0,22.0,29.42,NNW,335,5.0,-999.0,94,-99.99,,,-99.99,,2013-02-09 10:11:00,
2013-02-09 05:21:00,23.0,21.0,29.42,NW,319,5.0,-999.0,93,-99.99,,,-99.99,,2013-02-09 10:21:00,
2013-02-09 05:32:00,23.0,21.0,29.42,NW,319,5.0,-999.0,93,-99.99,,,-99.99,,2013-02-09 10:32:00,
2013-02-09 05:42:00,23.0,21.0,29.42,NW,319,5.0,-999.0,93,-99.99,,,-99.99,,2013-02-09 10:42:00,
2013-02-09 05:52:00,23.0,21.0,29.43,NW,321,5.0,-999.0,93,-99.99,,,-99.99,,2013-02-09 10:52:00,
2013-02-09 06:01:00,23.0,21.0,29.43,NNW,340,4.0,-999.0,93,-99.99,,,-99.99,,2013-02-09 11:01:00,
2013-02-09 06:11:00,23.0,21.0,29.43,NNW,340,4.0,-999.0,93,-99.99,,,-99.99,,2013-02-09 11:11:00,
2013-02-09 06:22:00,22.0,20.0,29.44,North,5,3.0,-999.0,93,-99.99,,,-99.99,,2013-02-09 11:22:00,
2013-02-09 06:32:00,22.0,20.0,29.44,NW,321,5.0,-999.0,93,-99.99,,,-99.99,,2013-02-09 11:32:00,
2013-02-09 06:42:00,22.0,20.0,29.44,NW,321,5.0,-999.0,93,-99.99,,,-99.99,,2013-02-09 11:42:00,
2013-02-09 06:52:00,22.0,20.0,29.45,North,360,3.0,-999.0,93,-99.99,,,-99.99,,2013-02-09 11:52:00,
2013-02-09 07:02:00,22.0,20.0,29.45,North,360,3.0,-999.0,93,-99.99,,,-99.99,,2013-02-09 12:02:00,
2013-02-09 07:11:00,22.0,20.0,29.45,North,360,3.0,-999.0,93,-99.99,,,-99.99,,2013-02-09 12:11:00,
2013-02-09 07:22:00,21.0,19.0,29.47,NW,324,4.0,-999.0,92,-99.99,,,-99.99,,2013-02-09 12:22:00,
2013-02-09 07:32:00,21.0,19.0,29.48,NNW,348,3.0,-999.0,92,-99.99,,,-99.99,,2013-02-09 12:32:00,
2013-02-09 07:42:00,21.0,19.0,29.48,NNW,348,3.0,-999.0,92,-99.99,,,-99.99,,2013-02-09 12:42:00,
2013-02-09 07:53:00,21.0,19.0,29.48,NNW,348,3.0,-999.0,92,-99.99,,,-99.99,,2013-02-09 12:53:00,
2013-02-09 08:02:00,21.0,19.0,29.49,NNW,333,2.0,-999.0,92,-99.99,,,-99.99,,2013-02-09 13:02:00,
2013-02-09 08:11:00,21.0,19.0,29.49,NNW,333,2.0,-999.0,92,-99.99,,,-99.99,,2013-02-09 13:11:00,
2013-02-09 08:22:00,21.0,19.0,29.50,NNW,337,3.0,-999.0,92,-99.99,,,-99.99,,2013-02-09 13:22:00,
2013-02-09 08:32:00,21.0,19.0,29.52,WNW,302,3.0,-999.0,91,-99.99,,,-99.99,,2013-02-09 13:32:00,
2013-02-09 08:42:00,21.0,19.0,29.52,WNW,302,3.0,-999.0,91,-99.99,,,-99.99,,2013-02-09 13:42:00,
2013-02-09 08:52:00,21.0,19.0,29.53,NNW,346,3.0,-999.0,91,-99.99,,,-99.99,,2013-02-09 13:52:00,
2013-02-09 09:01:00,21.0,19.0,29.54,NW,311,4.0,-999.0,90,-99.99,,,-99.99,,2013-02-09 14:01:00,
2013-02-09 09:11:00,21.0,19.0,29.54,NW,311,4.0,-999.0,90,-99.99,,,-99.99,,2013-02-09 14:11:00,
2013-02-09 09:21:00,22.0,19.0,29.54,WNW,284,4.0,-999.0,88,-99.99,,,-99.99,,2013-02-09 14:21:00,
2013-02-09 09:32:00,22.0,19.0,29.54,WNW,284,4.0,-999.0,88,-99.99,,,-99.99,,2013-02-09 14:32:00,
2013-02-09 09:42:00,22.0,19.0,29.54,WNW,284,4.0,-999.0,88,-99.99,,,-99.99,,2013-02-09 14:42:00,
2013-02-09 09:52:00,23.0,19.0,29.57,North,350,5.0,-999.0,86,-99.99,,,-99.99,,2013-02-09 14:52:00,
2013-02-09 10:02:00,23.0,19.0,29.57,West,275,5.0,-999.0,85,-99.99,,,-99.99,,2013-02-09 15:02:00,
2013-02-09 10:11:00,23.0,19.0,29.57,West,275,5.0,-999.0,85,-99.99,,,-99.99,,2013-02-09 15:11:00,
2013-02-09 10:22:00,23.0,18.0,29.57,NW,323,5.0,-999.0,82,-99.99,,,-99.99,,2013-02-09 15:22:00,
2013-02-09 10:32:00,23.0,18.0,29.58,NNW,328,5.0,-999.0,80,-99.99,,,-99.99,,2013-02-09 15:32:00,
2013-02-09 10:42:00,23.0,18.0,29.58,NNW,328,5.0,-999.0,80,-99.99,,,-99.99,,2013-02-09 15:42:00,
2013-02-09 10:52:00,23.0,17.0,29.59,NW,313,6.0,-999.0,79,-99.99,,,-99.99,,2013-02-09 15:52:00,
2013-02-09 11:01:00,24.0,18.0,29.59,NNW,329,6.0,-999.0,77,-99.99,,,-99.99,,2013-02-09 16:01:00,
2013-02-09 11:11:00,24.0,18.0,29.59,NNW,329,6.0,-999.0,77,-99.99,,,-99.99,,2013-02-09 16:11:00,
2013-02-09 11:22:00,24.0,18.0,29.59,NNW,329,6.0,-999.0,77,-99.99,,,-99.99,,2013-02-09 16:22:00,
2013-02-09 11:32:00,24.0,16.0,29.61,NNW,336,8.0,-999.0,72,-99.99,,,-99.99,,2013-02-09 16:32:00,
2013-02-09 11:42:00,24.0,16.0,29.61,NNW,336,8.0,-999.0,72,-99.99,,,-99.99,,2013-02-09 16:42:00,
2013-02-09 11:52:00,24.0,16.0,29.62,NNW,344,6.0,-999.0,71,-99.99,,,-99.99,,2013-02-09 16:52:00,
2013-02-09 12:01:00,24.0,15.0,29.62,NW,317,7.0,-999.0,69,-99.99,,,-99.99,,2013-02-09 17:01:00,
2013-02-09 12:11:00,24.0,15.0,29.62,NW,317,7.0,-999.0,69,-99.99,,,-99.99,,2013-02-09 17:11:00,
2013-02-09 12:21:00,24.0,14.0,29.62,NNW,327,9.0,-999.0,66,-99.99,,,-99.99,,2013-02-09 17:21:00,
2013-02-09 12:32:00,24.0,13.0,29.63,NW,317,8.0,-999.0,62,-99.99,,,-99.99,,2013-02-09 17:32:00,
2013-02-09 12:42:00,24.0,13.0,29.63,NW,317,8.0,-999.0,62,-99.99,,,-99.99,,2013-02-09 17:42:00,
2013-02-09 12:52:00,25.0,13.0,29.63,North,351,8.0,-999.0,61,-99.99,,,-99.99,,2013-02-09 17:52:00,
2013-02-09 13:02:00,25.0,12.0,29.64,West,281,8.0,-999.0,57,-99.99,,,-99.99,,2013-02-09 18:02:00,
2013-02-09 13:12:00,25.0,12.0,29.64,West,281,8.0,-999.0,57,-99.99,,,-99.99,,2013-02-09 18:12:00,
2013-02-09 13:23:00,25.0,12.0,29.64,West,281,8.0,-999.0,57,-99.99,,,-99.99,,2013-02-09 18:23:00,
2013-02-09 13:32:00,26.0,12.0,29.63,NNW,342,8.0,-999.0,56,-99.99,,,-99.99,,2013-02-09 18:32:00,
2013-02-09 13:42:00,26.0,12.0,29.63,NNW,342,8.0,-999.0,56,-99.99,,,-99.99,,2013-02-09 18:42:00,
2013-02-09 13:52:00,26.0,12.0,29.64,NNW,343,8.0,-999.0,54,-99.99,,,-99.99,,2013-02-09 18:52:00,
2013-02-09 14:02:00,26.0,12.0,29.65,WNW,298,6.0,-999.0,54,-99.99,,,-99.99,,2013-02-09 19:02:00,
2013-02-09 14:11:00,26.0,12.0,29.65,WNW,298,6.0,-999.0,54,-99.99,,,-99.99,,2013-02-09 19:11:00,
2013-02-09 14:22:00,26.0,10.0,29.65,NNW,336,6.0,-999.0,50,-99.99,,,-99.99,,2013-02-09 19:22:00,
2013-02-09 14:32:00,26.0,10.0,29.65,NNW,336,6.0,-999.0,50,-99.99,,,-99.99,,2013-02-09 19:32:00,
2013-02-09 14:42:00,26.0,10.0,29.65,NNW,336,6.0,-999.0,50,-99.99,,,-99.99,,2013-02-09 19:42:00,
2013-02-09 14:52:00,26.0,9.0,29.66,NW,323,8.0,-999.0,49,-99.99,,,-99.99,,2013-02-09 19:52:00,
2013-02-09 15:02:00,26.0,8.0,29.66,North,5,7.0,-999.0,46,-99.99,,,-99.99,,2013-02-09 20:02:00,
2013-02-09 15:11:00,26.0,8.0,29.66,North,5,7.0,-999.0,46,-99.99,,,-99.99,,2013-02-09 20:11:00,
2013-02-09 15:21:00,26.0,8.0,29.66,North,5,7.0,-999.0,46,-99.99,,,-99.99,,2013-02-09 20:21:00,
2013-02-09 15:32:00,26.0,6.0,29.68,NW,325,5.0,-999.0,42,-99.99,,,-99.99,,2013-02-09 20:32:00,
2013-02-09 15:42:00,26.0,6.0,29.68,NW,325,5.0,-999.0,42,-99.99,,,-99.99,,2013-02-09 20:42:00,
2013-02-09 15:52:00,26.0,6.0,29.68,NW,325,5.0,-999.0,42,-99.99,,,-99.99,,2013-02-09 20:52:00,
2013-02-09 16:02:00,26.0,4.0,29.69,North,5,5.0,-999.0,39,-99.99,,,-99.99,,2013-02-09 21:02:00,
2013-02-09 16:12:00,26.0,4.0,29.69,North,5,5.0,-999.0,39,-99.99,,,-99.99,,2013-02-09 21:12:00,
2013-02-09 16:21:00,26.0,6.0,29.70,NNW,339,4.0,-999.0,41,-99.99,,,-99.99,,2013-02-09 21:21:00,
2013-02-09 16:32:00,26.0,5.0,29.70,NNW,345,6.0,-999.0,40,-99.99,,,-99.99,,2013-02-09 21:32:00,
2013-02-09 16:42:00,26.0,5.0,29.70,NNW,345,6.0,-999.0,40,-99.99,,,-99.99,,2013-02-09 21:42:00,
2013-02-09 16:52:00,25.0,4.0,29.72,North,360,4.0,-999.0,40,-99.99,,,-99.99,,2013-02-09 21:52:00,
2013-02-09 17:01:00,25.0,5.0,29.72,East,87,3.0,-999.0,41,-99.99,,,-99.99,,2013-02-09 22:01:00,
2013-02-09 17:11:00,25.0,5.0,29.72,East,87,3.0,-999.0,41,-99.99,,,-99.99,,2013-02-09 22:11:00,
2013-02-09 17:21:00,25.0,5.0,29.74,North,349,3.0,-999.0,42,-99.99,,,-99.99,,2013-02-09 22:21:00,
2013-02-09 17:32:00,24.0,4.0,29.74,NNE,13,2.0,-999.0,42,-99.99,,,-99.99,,2013-02-09 22:32:00,
2013-02-09 17:42:00,24.0,4.0,29.74,NNE,13,2.0,-999.0,42,-99.99,,,-99.99,,2013-02-09 22:42:00,
2013-02-09 17:52:00,24.0,4.0,29.74,NNE,13,2.0,-999.0,42,-99.99,,,-99.99,,2013-02-09 22:52:00,
2013-02-09 18:02:00,23.0,4.0,29.76,NNW,342,1.0,-999.0,44,-99.99,,,-99.99,,2013-02-09 23:02:00,
2013-02-09 18:11:00,23.0,4.0,29.76,NNW,342,1.0,-999.0,44,-99.99,,,-99.99,,2013-02-09 23:11:00,
2013-02-09 18:21:00,22.0,4.0,29.77,NW,314,1.0,-999.0,45,-99.99,,,-99.99,,2013-02-09 23:21:00,
2013-02-09 18:32:00,22.0,5.0,29.78,NW,323,2.0,-999.0,47,-99.99,,,-99.99,,2013-02-09 23:32:00,
2013-02-09 18:42:00,22.0,5.0,29.78,NW,323,2.0,-999.0,47,-99.99,,,-99.99,,2013-02-09 23:42:00,
2013-02-09 18:52:00,22.0,5.0,29.78,NNW,333,2.0,-999.0,48,-99.99,,,-99.99,,2013-02-09 23:52:00,
2013-02-09 19:02:00,22.0,5.0,29.78,NNW,333,2.0,-999.0,48,-99.99,,,-99.99,,2013-02-10 00:02:00,
2013-02-09 19:12:00,22.0,5.0,29.78,NNW,333,2.0,-999.0,48,-99.99,,,-99.99,,2013-02-10 00:12:00,
2013-02-09 19:22:00,21.0,4.0,29.79,NW,315,3.0,-999.0,48,-99.99,,,-99.99,,2013-02-10 00:22:00,
2013-02-09 19:32:00,21.0,4.0,29.79,NW,315,3.0,-999.0,48,-99.99,,,-99.99,,2013-02-10 00:32:00,
2013-02-09 19:42:00,21.0,4.0,29.79,NW,315,3.0,-999.0,48,-99.99,,,-99.99,,2013-02-10 00:42:00,
2013-02-09 19:52:00,22.0,5.0,29.80,NW,326,4.0,-999.0,48,-99.99,,,-99.99,,2013-02-10 00:52:00,
2013-02-09 20:01:00,21.0,5.0,29.81,NNW,340,4.0,-999.0,49,-99.99,,,-99.99,,2013-02-10 01:01:00,
2013-02-09 20:12:00,21.0,5.0,29.81,NNW,340,4.0,-999.0,49,-99.99,,,-99.99,,2013-02-10 01:12:00,
2013-02-09 20:22:00,21.0,5.0,29.81,NNW,340,4.0,-999.0,49,-99.99,,,-99.99,,2013-02-10 01:22:00,
2013-02-09 20:32:00,20.0,6.0,29.83,NNW,339,1.0,-999.0,53,-99.99,,,-99.99,,2013-02-10 01:32:00,
2013-02-09 20:42:00,20.0,6.0,29.83,NNW,339,1.0,-999.0,53,-99.99,,,-99.99,,2013-02-10 01:42:00,
2013-02-09 20:51:00,20.0,6.0,29.83,NNW,339,1.0,-999.0,53,-99.99,,,-99.99,,2013-02-10 01:51:00,
2013-02-09 21:01:00,19.0,5.0,29.83,SE,126,2.0,-999.0,54,-99.99,,,-99.99,,2013-02-10 02:01:00,
2013-02-09 21:11:00,19.0,5.0,29.83,SE,126,2.0,-999.0,54,-99.99,,,-99.99,,2013-02-10 02:11:00,
2013-02-09 21:22:00,19.0,6.0,29.86,WNW,302,2.0,-999.0,55,-99.99,,,-99.99,,2013-02-10 02:22:00,
2013-02-09 21:32:00,19.0,6.0,29.87,NNW,346,4.0,-999.0,57,-99.99,,,-99.99,,2013-02-10 02:32:00,
2013-02-09 21:42:00,19.0,6.0,29.87,NNW,346,4.0,-999.0,57,-99.99,,,-99.99,,2013-02-10 02:42:00,
2013-02-09 21:52:00,18.0,6.0,29.88,NNW,333,3.0,-999.0,58,-99.99,,,-99.99,,2013-02-10 02:52:00,
2013-02-09 22:02:00,17.0,5.0,29.89,NW,318,2.0,-999.0,59,-99.99,,,-99.99,,2013-02-10 03:02:00,
2013-02-09 22:11:00,17.0,5.0,29.89,NW,318,2.0,-999.0,59,-99.99,,,-99.99,,2013-02-10 03:11:00,
2013-02-09 22:21:00,17.0,5.0,29.89,NNW,348,3.0,-999.0,59,-99.99,,,-99.99,,2013-02-10 03:21:00,
2013-02-09 22:32:00,16.0,5.0,29.89,NE,51,2.0,-999.0,60,-99.99,,,-99.99,,2013-02-10 03:32:00,
2013-02-09 22:42:00,16.0,5.0,29.89,NE,51,2.0,-999.0,60,-99.99,,,-99.99,,2013-02-10 03:42:00,
2013-02-09 22:51:00,16.0,5.0,29.90,NW,317,2.0,-999.0,61,-99.99,,,-99.99,,2013-02-10 03:51:00,
2013-02-09 23:01:00,15.0,4.0,29.90,North,351,2.0,-999.0,62,-99.99,,,-99.99,,2013-02-10 04:01:00,
2013-02-09 23:11:00,15.0,4.0,29.90,North,351,2.0,-999.0,62,-99.99,,,-99.99,,2013-02-10 04:11:00,
2013-02-09 23:21:00,15.0,4.0,29.91,NNW,340,1.0,-999.0,62,-99.99,,,-99.99,,2013-02-10 04:21:00,
2013-02-09 23:32:00,14.0,4.0,29.91,North,355,1.0,-999.0,63,-99.99,,,-99.99,,2013-02-10 04:32:00,
2013-02-09 23:42:00,14.0,4.0,29.91,North,355,1.0,-999.0,63,-99.99,,,-99.99,,2013-02-10 04:42:00,
2013-02-09 23:52:00,14.0,4.0,29.91,North,355,1.0,-999.0,63,-99.99,,,-99.99,,2013-02-10 04:52:00,